TimeCDT,TemperatureF,Dew PointF,Humidity,Sea Level PressureIn,VisibilityMPH,Wind Direction,Wind SpeedMPH,Gust SpeedMPH,PrecipitationIn,Events,Conditions,WindDirDegrees,DateUTC
12:53 AM,28.9,26.1,89,30.23,10.0,NW,5.8,-,N/A,,Clear,310,2013-10-16 05:53:00
1:53 AM,28.0,25.0,88,30.24,10.0,WNW,3.5,-,N/A,,Clear,300,2013-10-16 06:53:00
2:53 AM,27.0,25.0,92,30.22,10.0,NW,6.9,-,N/A,,Clear,310,2013-10-16 07:53:00
3:53 AM,27.0,24.1,89,30.20,10.0,WNW,4.6,-,N/A,,Clear,300,2013-10-16 08:53:00
4:53 AM,28.0,26.1,92,30.19,10.0,West,6.9,-,N/A,,Clear,280,2013-10-16 09:53:00
5:53 AM,27.0,24.1,89,30.21,10.0,NW,3.5,-,N/A,,Clear,320,2013-10-16 10:53:00
6:53 AM,26.1,24.1,92,30.20,10.0,NW,3.5,-,N/A,,Clear,320,2013-10-16 11:53:00
7:53 AM,26.1,24.1,92,30.19,9.0,NW,3.5,-,N/A,,Clear,320,2013-10-16 12:53:00
8:53 AM,30.0,27.0,88,30.19,9.0,Calm,Calm,-,N/A,,Clear,0,2013-10-16 13:53:00
9:53 AM,36.0,32.0,86,30.18,9.0,WNW,5.8,-,N/A,,Clear,300,2013-10-16 14:53:00
10:53 AM,41.0,33.1,73,30.17,10.0,WNW,5.8,-,N/A,,Clear,300,2013-10-16 15:53:00
11:53 AM,46.0,33.1,61,30.15,10.0,West,4.6,-,N/A,,Clear,270,2013-10-16 16:53:00
12:53 PM,48.0,32.0,54,30.13,10.0,Variable,4.6,-,N/A,,Clear,0,2013-10-16 17:53:00
1:53 PM,51.1,33.1,50,30.09,10.0,WNW,6.9,-,N/A,,Clear,290,2013-10-16 18:53:00
2:53 PM,52.0,30.9,45,30.06,10.0,West,9.2,-,N/A,,Partly Cloudy,270,2013-10-16 19:53:00
3:53 PM,51.1,32.0,48,30.05,10.0,West,10.4,-,N/A,,Partly Cloudy,280,2013-10-16 20:53:00
4:53 PM,51.1,33.1,50,30.03,10.0,West,8.1,-,N/A,,Mostly Cloudy,280,2013-10-16 21:53:00
5:53 PM,48.9,35.1,59,30.03,10.0,West,5.8,-,N/A,,Clear,280,2013-10-16 22:53:00
6:53 PM,43.0,34.0,71,30.02,10.0,Calm,Calm,-,N/A,,Clear,0,2013-10-16 23:53:00
7:53 PM,39.0,33.1,79,30.03,10.0,Calm,Calm,-,N/A,,Clear,0,2013-10-17 00:53:00
8:53 PM,37.0,33.1,86,30.02,10.0,Calm,Calm,-,N/A,,Clear,0,2013-10-17 01:53:00
9:53 PM,34.0,32.0,92,30.02,10.0,Calm,Calm,-,N/A,,Clear,0,2013-10-17 02:53:00
10:53 PM,32.0,30.9,96,30.02,6.0,Calm,Calm,-,N/A,,Clear,0,2013-10-17 03:53:00
11:53 PM,28.9,27.0,92,30.01,10.0,WNW,3.5,-,N/A,,Clear,300,2013-10-17 04:53:00